STARLINK-32348, 61631

Orbit data source: Space-Track

STARLINK-32348, 61631 is a payload satellite owned by SpaceX/Seattle (US) in LEO that was launched on Wed, 23 Oct 2024 UTC via an FALCON 9 launch vehicle from the Air Force Eastern Test Range (AFETR). Payload-class satellites include a variety of spacecraft equipped with specific instruments for various scientific and technological missions. These include communications satellites like Starlink; space stations such as the ISS; scientific satellites like the Hubble; Earth observation satellites from companies like Planet Labs, Umbra, and HawkEye 360; GPS; miniature CubeSats for education and research; and military/defense satellites.

Loading next visibility...
Identifier
61631, 2024-191L
Orbit
LEO
Last TLE update
10 hours ago
Origin
Manufacturer
SpaceX/Seattle
Mission
Operational Commercial Communications
Bus & Motor
STARLINK V2M, Unknown motor
Mass
730 kg wet, ~700 kg dry
Launch date (UTC)
2024-10-23 (8 months ago)
Launch vehicle
FALCON 9
Launch site
Air Force Eastern Test Range (AFETR)
Object type
Payload
Rocket body
Debris
Shape & HBR
Box + 2 Pan, 29 m
Radar Cross Section
36.964 m², Large (>1 m²)

Expand to show TLE details & history

TLE from 10 hours ago
0 STARLINK-32348
1 61631U 24191L   25163.24005442  .00002356  00000-0  95125-4 0  9994
2 61631  42.9986 245.4097 0001536 265.7411  94.3265 15.27581585 36835
Epoch: 2025-06-12T05:45Z
TLE epoch observation values (Epoch: 2025-06-12T05:45:40.701Z)
Latitude
-0.00004°
Longitude
-101.82098°
Altitude
482.899 km
Speed
7.626 km/s
True Right ascension
16h 21m 38s
True Declination
0° 00' 00"
Sunlit
Object was in full shadow at epoch
Visualization orbit readout
Latitude
-22.06524°
Longitude
101.35777°
Altitude
487.558 km
Speed
7.622 km/s
Apparent Right ascension
09h 11m 20s
Apparent Declination
-52° 54' 21"
Sunlit
Object is in daylight
Visualization observer readout
Local Sidereal Time
02:30:49
Azimuth
132.482° SE
Elevation
-36.384°
Doppler factor
1
Orbital elements
Apogee altitude
486.044 km
Perigee altitude
483.936 km
Semi-major axis
6,863.127 km
Eccentricity
0.00015
Inclination
42.9986°
RAAN
245.4097°
Arg. of periapsis
265.7411°
True anomaly
Unknown
Mean anomaly
94.3265°
Eccentric anomaly
Unknown
Mean motion
3.81733 °/min
Orbital period
94.31 mins
BSTAR
0.000095125
Loading maneuver chart data...
Loading SW <> Apogee altitude chart data...
Loading historical data...
Loading historical data...
Loading historical data...
Loading historical data...
Loading historical data...
Loading historical data...
Loading historical data...

STARLINK-32348 Visibility forecast

Observer location: undefined°, undefined°

Span
Click to sort rows by Start time (UTC) header in descending order
Start Az.
Max El. time (UTC)
Max El. Az.
Max El.
End time (UTC)
End Az.
6 mins2025-06-13 08:38:21.099Z221.649° SW2025-06-13 08:41:21.099Z171.529° S31.989°2025-06-13 08:44:21.099Z87.42° E
6 mins2025-06-13 10:18:21.099Z270.263° WNW2025-06-13 10:20:21.099Z316.039° NNW41.107°2025-06-13 10:24:21.099Z70.854° E
6 mins2025-06-13 11:57:21.099Z292.538° NW2025-06-13 12:00:21.099Z36.979° NE37.578°2025-06-13 12:03:21.099Z84.374° E
6 mins2025-06-13 13:36:21.099Z281.537° WNW2025-06-13 13:39:21.099Z164.521° S40.297°2025-06-13 13:42:21.099Z122.646° SE
|